Regional Weather Roundup
Issued by NWS Lake Charles, LA

Home | Current Version | Previous Version | Text Only | Print | Product List | Glossary On
Versions: 1 2 3 4 5 6 7 8 9 10 11 12 13 14 15 16 17 18 19 20 21 22 23 24 25 26 27
000
ASUS44 KLCH 250210
RWRLCH
RWRLCH
REGIONAL WEATHER ROUNDUP
NATIONAL WEATHER SERVICE LAKE CHARLES LA
900 PM CDT FRI OCT 24 2014

Note: "fair" indicates few or no clouds below 12,000 feet with no
significant weather and/or obstructions to visibility.


ACROSS SOUTHEAST TEXAS

CITY           SKY/WX    TMP DP  RH WIND       PRES   REMARKS
BEAUMONT       CLEAR     58  54  86 CALM      30.11S
BEAUMONT CITY    N/A     58  54  84 NW5       30.13R
ORANGE         CLEAR     56  56 100 CALM      30.13R
JASPER         CLEAR     56  54  91 CALM      30.16R
$$

ACROSS CENTRAL LOUISIANA

CITY           SKY/WX    TMP DP  RH WIND       PRES   REMARKS
LEESVILLE      CLEAR     57  53  86 NE2       30.12R
FULLERTON        N/A     58  52  80 CALM      30.11R
ALEXANDRIA INT CLEAR     56  54  93 CALM      30.11R
ESLER FIELD    CLEAR     52  52 100 CALM      30.12S
DERIDDER         N/A     58  53  85 CALM      30.14R
OAKDALE        CLEAR     53  51  94 CALM      30.12S
OPELOUSAS      CLOUDY    55  52  90 CALM      30.11S
$$

ACROSS SOUTHWEST AND SOUTH CENTRAL LOUISIANA

CITY           SKY/WX    TMP DP  RH WIND       PRES   REMARKS
SULPHUR        CLEAR     60  53  78 CALM      30.13R
LAKE CHARLES   CLEAR     58  52  80 CALM      30.12R
CHENNAULT INT  NOT AVBL
CAMERON PHI    CLEAR     64  54  68 CALM      30.14S
DEQUINCY         N/A     56  55  94 CALM      30.12S
JENNINGS         N/A     60  51  71 CALM      30.11S
LAFAYETTE      CLEAR     60  57  89 CALM      30.11R
NEW IBERIA     CLEAR     60  53  77 CALM      30.11S
ABBEVILLE        N/A     56  52  88 CALM      30.11S
PATTERSON      CLEAR     61  54  77 N3        30.13R
SALT POINT       N/A     65  53  65 N3        30.10R
$$

SELECTED SITES ACROSS THE REGION

CITY           SKY/WX    TMP DP  RH WIND       PRES   REMARKS
HOUSTON BUSH   CLEAR     66  58  75 CALM      30.12R
HOUSTON HOBBY  CLEAR     68  59  73 CALM      30.12R
GALVESTON      CLEAR     70  58  65 NE6       30.13R
COLLEGE STAT   CLEAR     69  59  70 CALM      30.12R
CONROE         CLEAR     61  58  90 CALM      30.13R
HUNTSVILLE     CLEAR     67  58  72 CALM      30.13R
LUFKIN         CLEAR     64  58  80 CALM      30.13R
SHREVEPORT     MOCLDY    61  56  83 CALM      30.11S
MONROE         CLEAR     54  52  93 CALM      30.13S
NATCHEZ MS     CLEAR     54  48  82 CALM      30.13R
BATON ROUGE    CLEAR     57  51  80 CALM      30.11R
N.O. INTL ARPT CLEAR     68  50  52 N6        30.09R
SLIDELL        CLEAR     55  51  86 N3        30.08R
$$

MARINE REPORTS

STATION/POSITION TIME  TEMP    WIND        PRES    VSBY  WAVE
                       AIR SEA DIR/SP/G                  HT/PER
                 (UTC) (F)     (DEG/KT/KT) (MB)    (MI)  (FT/S)
BUOY 30 S HIGH I 0200   72 77   60/  4/  4 1019.8R         2/ 7
SEA RIM ST PARK  0200   69      40/  2/  2 1020.5R
PORT ARTHUR      0200      74   CALM  /  2 1019.9R
SABINE PASS N    0200   68 72   40/  2/  4 1020.0R
TEXAS POINT      0200   69 73   30/  7/  8 1020.0R
CALCASIEU PASS   0200   68 72   60/  2/  3   N/A
LK CHARLES BEACH 0200   66 75              1019.8R
MARSH ISLAND     NOT AVBL
FRESH WATER LOCK 0200   64 71   10/  3/  4 1019.4S
AMERADA PASS     0200   67 71  310/  5/  7 1019.2R
$$



USA.gov is the U.S. government's official web portal to all federal, state and local government web resources and services.